| time (UTC) | temp C | wind direction | speed KPH | gust KPH | rain 1hr cm | rain 24hr cm | rain mn cm | humidity % | barometer mb |
| 20260504223004 | 21 | 286 | 12.9 | 33.8 | 0.00 | 0.00 | 0.00 | 33 | 1005.1 |
| 20260504220059 | 21 | 315 | 20.9 | 40.2 | 0.00 | 0.00 | 0.00 | 32 | 1005.1 |
| 20260504214557 | 21 | 262 | 16.1 | 30.6 | 0.00 | 0.00 | 0.00 | 32 | 1005.1 |
| 20260504213056 | 21 | 288 | 19.3 | 43.5 | 0.00 | 0.00 | 0.00 | 32 | 1005.2 |
| 20260504211553 | 21 | 265 | 19.3 | 41.8 | 0.00 | 0.00 | 0.00 | 32 | 1005.2 |
| 20260504210105 | 21 | 306 | 25.7 | 46.7 | 0.00 | 0.00 | 0.00 | 31 | 1005.2 |
| 20260504204556 | 21 | 340 | 17.7 | 43.5 | 0.00 | 0.00 | 0.00 | 31 | 1005.2 |
| 20260504203101 | 21 | 247 | 27.4 | 41.8 | 0.00 | 0.00 | 0.00 | 32 | 1005.2 |
| 20260504201540 | 21 | 323 | 9.7 | 40.2 | 0.00 | 0.00 | 0.00 | 32 | 1005.2 |
| 20260504200036 | 21 | 279 | 20.9 | 37.0 | 0.00 | 0.00 | 0.00 | 32 | 1005.2 |
| 20260504194536 | 20 | 304 | 20.9 | 45.1 | 0.00 | 0.00 | 0.00 | 32 | 1005.3 |
| 20260504193035 | 21 | 242 | 17.7 | 40.2 | 0.00 | 0.00 | 0.00 | 31 | 1005.4 |
| 20260504191529 | 21 | 296 | 22.5 | 48.3 | 0.00 | 0.00 | 0.00 | 30 | 1005.3 |
| 20260504190024 | 20 | 283 | 22.5 | 38.6 | 0.00 | 0.00 | 0.00 | 30 | 1005.5 |
| 20260504184519 | 20 | 257 | 29.0 | 43.5 | 0.00 | 0.00 | 0.00 | 30 | 1005.8 |
| 20260504183015 | 20 | 286 | 19.3 | 41.8 | 0.00 | 0.00 | 0.00 | 30 | 1005.9 |
| 20260504181512 | 20 | 309 | 19.3 | 48.3 | 0.00 | 0.00 | 0.00 | 31 | 1005.9 |
| 20260504180040 | 20 | 242 | 25.7 | 45.1 | 0.00 | 0.00 | 0.00 | 32 | 1006.0 |
| 20260504174536 | 20 | 286 | 33.8 | 54.7 | 0.00 | 0.00 | 0.00 | 30 | 1006.1 |
| 20260504173029 | 20 | 314 | 27.4 | 54.7 | 0.00 | 0.00 | 0.00 | 32 | 1006.3 |
| 20260504171526 | 19 | 263 | 25.7 | 49.9 | 0.00 | 0.00 | 0.00 | 32 | 1006.5 |
| 20260504081525 | 7 | 269 | 8.0 | 12.9 | 0.00 | 0.03 | 0.03 | 52 | 1009.5 |
| 20260504070103 | 7 | 255 | 8.0 | 12.9 | 0.00 | 0.03 | 0.03 | 52 | 1009.3 |
| 20260504044520 | 6 | 286 | 8.0 | 12.9 | 0.00 | 0.03 | 0.03 | 51 | 1009.4 |
| 20260504043016 | 6 | 280 | 8.0 | 14.5 | 0.00 | 0.03 | 0.03 | 50 | 1009.4 |
| 20260504041511 | 5 | 274 | 8.0 | 14.5 | 0.00 | 0.03 | 0.03 | 48 | 1009.3 |
| 20260504040007 | 6 | 257 | 8.0 | 14.5 | 0.00 | 0.03 | 0.03 | 50 | 1009.3 |
| 20260504034501 | 6 | 266 | 8.0 | 12.9 | 0.00 | 0.03 | 0.03 | 49 | 1009.2 |
| 20260504033059 | 6 | 251 | 8.0 | 11.3 | 0.00 | 0.03 | 0.03 | 51 | 1009.1 |
| 20260504031558 | 6 | 267 | 6.4 | 11.3 | 0.00 | 0.03 | 0.03 | 52 | 1009.1 |
| 20260504030049 | 7 | 261 | 6.4 | 11.3 | 0.00 | 0.03 | 0.03 | 52 | 1009.0 |
| 20260504024541 | 7 | 238 | 6.4 | 9.7 | 0.00 | 0.03 | 0.03 | 51 | 1008.9 |
| 20260504023036 | 7 | 260 | 6.4 | 8.0 | 0.00 | 0.03 | 0.03 | 50 | 1008.9 |
| 20260504021531 | 7 | 277 | 6.4 | 8.0 | 0.00 | 0.03 | 0.03 | 50 | 1008.9 |
| 20260504020030 | 8 | 274 | 6.4 | 9.7 | 0.00 | 0.03 | 0.03 | 49 | 1008.8 |
| 20260504014600 | 7 | 278 | 6.4 | 9.7 | 0.00 | 0.03 | 0.03 | 50 | 1008.7 |
| 20260504013053 | 7 | 261 | 4.8 | 9.7 | 0.00 | 0.03 | 0.03 | 51 | 1008.7 |
| 20260504011542 | 8 | 260 | 6.4 | 8.0 | 0.00 | 0.03 | 0.03 | 49 | 1008.5 |
| 20260504010038 | 8 | 290 | 4.8 | 8.0 | 0.00 | 0.03 | 0.03 | 48 | 1008.3 |
| 20260504004533 | 9 | 279 | 3.2 | 6.4 | 0.00 | 0.03 | 0.03 | 47 | 1008.1 |
| 20260504003029 | 9 | 274 | 4.8 | 8.0 | 0.00 | 0.03 | 0.03 | 46 | 1008.0 |
| 20260504001602 | 9 | 298 | 1.6 | 6.4 | 0.00 | 0.03 | 0.03 | 46 | 1007.7 |
| 20260504000052 | 9 | 346 | 3.2 | 11.3 | 0.00 | 0.03 | 0.03 | 45 | 1007.7 |
| 20260503234517 | 10 | 355 | 6.4 | 12.9 | 0.00 | 0.03 | 0.03 | 44 | 1007.6 |
| 20260503233019 | 10 | 313 | 6.4 | 16.1 | 0.00 | 0.03 | 0.03 | 44 | 1007.3 |
| 20260503231505 | 10 | 13 | 6.4 | 19.3 | 0.00 | 0.03 | 0.03 | 43 | 1007.2 |
| 20260503230100 | 10 | 41 | 11.3 | 30.6 | 0.00 | 0.03 | 0.03 | 42 | 1007.0 |
| 20260503224556 | 10 | 9 | 11.3 | 35.4 | 0.00 | 0.03 | 0.03 | 42 | 1006.8 |